Other Public Products
Issued by NWS Charleston, SC

Current Version | Previous Version | Graphics & Text | Print | Product List | Glossary On
Versions: 1 2 3 4 5 6 7 8 9 10 11 12 13 14 15 16 17 18 19 20 21 22 23 24 25 26 27 28 29 30 31 32 33 34 35 36 37 38 39 40 41 42 43 44 45 46 47 48 49 50
000 FPUS82 KCHS 240612 OPUCHS TEST...KCHS/KSAV Gateway Observations...TEST National Weather Service Charleston SC 100 AM EST SAT FEB 24 2018 NOTE: "fair" indicates few or no clouds below 12,000 feet with no significant weather and/or obstructions to visibility. SCZ050-WAZ558-NCZ071-TXZ119-213-PAZ071-DCZ001-FLZ074-172-MI076- NYZ176-178-MAZ016-IL014-TNZ027-NJZ106-GAZ044-MD014-240700- ...Gateway Observations for Charleston International... CITY SKY/WX TMP DP RH WIND PRES REMARKS Chas Airport FAIR 63 63 100 S6 30.30F 6HR MIN TEMP: 62; 6HR MAX TEMP: 68; Seattle CLOUDY 37 33 85 S20G25 30.09F WCI 27 6HR MIN TEMP: 33; 6HR MAX TEMP: 37; 6HR PCP: 0.03; Charlotte FAIR 59 54 83 SE3 30.27F 6HR MIN TEMP: 58; 6HR MAX TEMP: 69; Dallas DFW CLOUDY 48 45 89 NE3 29.99F 6HR MIN TEMP: 47; 6HR MAX TEMP: 49; 6HR PCP: 0.02; Dallas Love CLOUDY 47 46 97 N3 30.02F 6HR MIN TEMP: 46; 6HR MAX TEMP: 52; 6HR PCP: 0.01; Philladelphia CLOUDY 44 43 96 SW10 30.23S 6HR MIN TEMP: 43; 6HR MAX TEMP: 45; Wash National FOG 48 48 100 S6 30.24F VSB 1/4 6HR MIN TEMP: 46; 6HR MAX TEMP: 48; 6HR PCP: TRACE; Baltimore DRZL/FOG 43 43 100 CALM 30.23F VSB 1/4 6HR MIN TEMP: 42; 6HR MAX TEMP: 43; 6HR PCP: TRACE; Miami MOCLDY 74 69 85 E14 30.23F 6HR MIN TEMP: 72; 6HR MAX TEMP: 77; 6HR PCP: 0.02; Detroit CLOUDY 40 34 79 NW9 30.24R WCI 34 6HR MIN TEMP: 40; 6HR MAX TEMP: 47; Newark CLOUDY 42 41 96 W10 30.18S FOG 6HR MIN TEMP: 39; 6HR MAX TEMP: 42; 6HR PCP: TRACE; Laguardia CLOUDY 45 40 82 W13G23 30.17R 6HR MIN TEMP: 41; 6HR MAX TEMP: 45; J F K CLOUDY 42 42 100 W8 30.20R 6HR MIN TEMP: 39; 6HR MAX TEMP: 42; Boston Logan CLOUDY 39 37 92 SW10G20 30.05F WCI 32 6HR MIN TEMP: 37; 6HR MAX TEMP: 39; 6HR PCP: 0.05; Ft. Lauderdale LGT RAIN 72 72 100 E12 30.22F 6HR MIN TEMP: 70; 6HR MAX TEMP: 76; 6HR PCP: 0.12; Chicago O`Hare CLOUDY 33 28 81 NW7 30.26S WCI 27 6HR MIN TEMP: 33; 6HR MAX TEMP: 39; Chicago Midway CLOUDY 35 30 82 N9 30.25F WCI 28 6HR MIN TEMP: 35; 6HR MAX TEMP: 39; Houston Bush CLOUDY 73 70 90 S8 30.02F 6HR MIN TEMP: 71; 6HR MAX TEMP: 76; Houston Hobby CLOUDY 73 72 96 S14 30.02F 6HR MIN TEMP: 72; 6HR MAX TEMP: 74; Nashville CLOUDY 61 57 87 N7 30.17F 6HR MIN TEMP: 61; 6HR MAX TEMP: 73; 6HR PCP: TRACE; Atlanta MOCLDY 66 59 78 SE6 30.24F 6HR MIN TEMP: 66; 6HR MAX TEMP: 73; $$ GAZ044-118-TXZ119-213-NCZ071-DCZ001-MDZ014-506-PAZ021-071-NJZ106- NYZ176-178-MAZ106-OHZ011-021-055-MIZ076-KYZ091-ILZ014-INZ047- MNZ060-ONZ431-240700- ...Gateway Observations for Savannah International... CITY SKY/WX TMP DP RH WIND PRES REMARKS Savannah Arpt FAIR 63 63 100 S3 30.30F 6HR MIN TEMP: 63; 6HR MAX TEMP: 70; Atlanta MOCLDY 66 59 78 SE6 30.24F 6HR MIN TEMP: 66; 6HR MAX TEMP: 73; Charlotte FAIR 59 54 83 SE3 30.27F 6HR MIN TEMP: 58; 6HR MAX TEMP: 69; Dallas DFW CLOUDY 48 45 89 NE3 29.99F 6HR MIN TEMP: 47; 6HR MAX TEMP: 49; 6HR PCP: 0.02; Houston Bush CLOUDY 73 70 90 S8 30.02F 6HR MIN TEMP: 71; 6HR MAX TEMP: 76; Wash National FOG 48 48 100 S6 30.24F VSB 1/4 6HR MIN TEMP: 46; 6HR MAX TEMP: 48; 6HR PCP: TRACE; Wash Dulles CLOUDY 47 47 100 S5 30.22F FOG 6HR MIN TEMP: 45; 6HR MAX TEMP: 47; Baltimore DRZL/FOG 43 43 100 CALM 30.23F VSB 1/4 6HR MIN TEMP: 42; 6HR MAX TEMP: 43; 6HR PCP: TRACE; Philadelphia CLOUDY 44 43 96 SW10 30.23S 6HR MIN TEMP: 43; 6HR MAX TEMP: 45; Newark CLOUDY 42 41 96 W10 30.18S FOG 6HR MIN TEMP: 39; 6HR MAX TEMP: 42; 6HR PCP: TRACE; Laguardia CLOUDY 45 40 82 W13G23 30.17R 6HR MIN TEMP: 41; 6HR MAX TEMP: 45; J F K CLOUDY 42 42 100 W8 30.20R 6HR MIN TEMP: 39; 6HR MAX TEMP: 42; Boston CLOUDY 39 37 92 SW10G20 30.05F WCI 32 6HR MIN TEMP: 37; 6HR MAX TEMP: 39; 6HR PCP: 0.05; Pittsburg CLOUDY 57 53 86 W7 30.15F 6HR MIN TEMP: 57; 6HR MAX TEMP: 62; 6HR PCP: TRACE; Akron MOCLDY 49 44 83 NW7 30.18S 6HR MIN TEMP: 49; 6HR MAX TEMP: 61; Cleveland CLOUDY 47 43 86 NW6 30.24R 6HR MIN TEMP: 47; 6HR MAX TEMP: 53; Cincinnati LGT RAIN 52 51 97 N3 30.18S 6HR MIN TEMP: 51; 6HR MAX TEMP: 57; 6HR PCP: TRACE; Columbus CLOUDY 51 51 97 N7 30.18F Detroit CLOUDY 40 34 79 NW9 30.24R WCI 34 6HR MIN TEMP: 40; 6HR MAX TEMP: 47; Chicago O`Hare CLOUDY 33 28 81 NW7 30.26S WCI 27 6HR MIN TEMP: 33; 6HR MAX TEMP: 39; Minneapolis FAIR 17 14 88 NW3 30.28F 6HR MIN TEMP: 16; 6HR MAX TEMP: 27; Indianapolis LGT RAIN 44 42 93 NW12 30.22R 6HR MIN TEMP: 44; 6HR MAX TEMP: 49; 6HR PCP: TRACE; Toronto Canada CLOUDY 41 36 81 W15G26 30.14R $$

USA.gov is the U.S. government's official web portal to all federal, state and local government web resources and services.